Hourly Data Report for October 29, 2013

All times are specified in Local Standard Time (LST). Add 1 hour to adjust for Daylight Saving Time where and when it is observed.

QIKIQTARJUAQ A
NUNAVUT

67°32'48.000" N
64°01'54.000" W
5.50 m
2400577
YVM

Download Data

Hourly Data (October 2013)
Hourly Data Report for October 29, 2013
Temp Definition
°C
Dew Point Temp Definition
°C
Rel Hum Definition
%
Wind Dir Definition
10's deg

Wind Spd Definition
km/h
Visibility Definition
km
Stn Press Definition
kPa
Hmdx Definition


Wind Chill Definition


Weather Definition


TIME
00:00 Legend Double Dagger -9.2 -12.3 78 16 9 16.1 100.19   -14 LegendNANA
01:00 Legend Double Dagger -7.5 -10.9 77 20 17 16.1 100.19   -14 LegendNANA
02:00 Legend Double Dagger -7.0 -10.5 76 19 17 16.1 100.19   -13 LegendNANA
03:00 Legend Double Dagger -6.5 -9.9 77 19 17 16.1 100.21   -13 LegendNANA
04:00 Legend Double Dagger -6.7 -10.3 76 19 21 16.1 100.20   -14 LegendNANA
05:00 Legend Double Dagger -6.9 -10.5 76 19 21 16.1 100.20   -14 LegendNANA
06:00 Legend Double Dagger -8.8 -11.5 81 15 11 16.1 100.23   -14 LegendNANA
07:00 Legend Double Dagger -8.4 -11.8 77 21 13 16.1 100.26   -14 LegendNANA
08:00 Legend Double Dagger -8.1 -11.8 75 20 15 16.1 100.26   -14 LegendNANA
09:00 Legend Double Dagger -9.2 -12.2 79 20 15 16.1 100.25   -16 LegendNANA
10:00 Legend Double Dagger -8.4 -11.6 78 20 13 16.1 100.25   -14 LegendNANA
11:00 Legend Double Dagger -8.4 -11.9 76 19 15 16.1 100.23   -15 LegendNANA
12:00 Legend Double Dagger -8.6 -11.8 78 20 13 16.1 100.23   -15 LegendNANA
13:00 Legend Double Dagger -7.6 -10.8 78 20 18 16.1 100.23   -14 LegendNANA
14:00 Legend Double Dagger -7.2 -10.9 75 19 15 16.1 100.25   -13 LegendNANA
15:00 Legend Double Dagger -8.5 -11.9 76 14 5 16.1 100.27   -11 LegendNANA
16:00 Legend Double Dagger -6.6 -10.4 74 19 17 16.1 100.29   -13 LegendNANA
17:00 Legend Double Dagger -5.4 -10.0 70 LegendMM 4 16.1 100.34   -7 LegendNANA
18:00 Legend Double Dagger -3.6 -9.5 64   0 16.1 100.39     LegendNANA
19:00 Legend Double Dagger -3.8 -8.4 71 30 21 16.1 100.39   -10 LegendNANA
20:00 Legend Double Dagger -2.8 -7.6 70 30 24 16.1 100.38   -9 LegendNANA
21:00 Legend Double Dagger -2.6 -7.4 70 32 21 16.1 100.40   -9 LegendNANA
22:00 Legend Double Dagger -2.8 -6.3 77 34 13 16.1 100.43   -7 LegendNANA
23:00 Legend Double Dagger -2.4 -7.5 68 32 13 16.1 100.43   -7 LegendNANA

Notes on Data Quality.

Legend

  • E = Estimated
  • M = Missing
  • NA = Not Available
  • ‡ = Partner data that is not subject to review by the National Climate Archives
Date modified: